Location: Janeiro
(34.9957°N, 76.7652°W)
Time: 17:22:42
(UTC+00:00)

Cosmos 676 Rocket - Pass Details

Date: 14 December 2019
Orbit: 754 x 785 km, 74.0° (Epoch: 25 January)

Event Time Altitude Azimuth Distance (km) Brightness Sun altitude
Rises 22:53:39 0° 194° (SSW) 3,190 7.7 -11.5°
Reaches altitude 10° 22:56:00 10° 193° (SSW) 2,268 6.9 -12.0°
Maximum altitude 23:01:09 83° 106° (ESE) 763 3.9 -12.9°
Drops below altitude 10° 23:06:20 10° 19° (NNE) 2,287 6.1 -14.0°
Enters shadow 23:07:21 - 19° (NNE) 2,683 6.5 -14.1°
